Flag for Canada Weather past 2 weeks in Kirkland Lake, Ontario, Canada

Now
37 °F

Mostly cloudy.


Feels Like: 31 °F
Forecast: 24 / 44 °F
Wind: 9 mph from Northwest

Location: Earlton

Current Time: Apr 25, 2015 at 1:03:29 PM

Latest Report: Apr 25, 2015 at 12:00 PM


Visibility: 9 mi

Pressure: 30.02 "Hg

Humidity: 65%

Dew point: 27 °F

Location of Kirkland LakeLocation

Historic Weather in Kirkland Lake — Graph

°F

Kirkland Lake temperature yesterday

Maximum temperature yesterday: 37 °F (at 5:00 PM)
Minimum temperature yesterday: 21 °F (at 4:00 AM)
Average temperature yesterday: 28 °F

Past Weeks' High & Low Weather Summary

 TemperatureHumidityPressure
High59 °F (Apr 16, 3:00 PM)100% (Apr 10, 11:00 AM)30.47 "Hg (Apr 10, 11:00 AM)
Low21 °F (Apr 24, 4:00 AM)24% (Apr 14, 4:00 PM)29.17 "Hg (Apr 10, 1:00 PM)
Average38 °F72%29.86 "Hg
* Reported Apr 10 11:00 AM — Apr 25 11:00 AM, Kirkland Lake, Weather by CustomWeather, © 2015

Note: Actual official high and low records may vary slightly from our data, if they occured in-between our weather recording intervals... More about our weather records

Advertising

Kirkland Lake weather history for previous 24 hours

 ConditionsComfort  
Time TempWeatherWind HumidityBarometerVisibility
11:00 AM
Sat, Apr 25
36 °FOvercast.8 mph70%30.02 "Hg9 mi
10:00 AM34 °FOvercast.9 mph70%30.02 "Hg9 mi
9:00 AM32 °FCloudy.9 mph69%30.03 "Hg9 mi
8:00 AM30 °FOvercast.13 mph75%30.03 "Hg9 mi
7:00 AM30 °FOvercast.7 mph80%30.02 "Hg9 mi
6:00 AM30 °FMostly cloudy.7 mph80%30.02 "Hg9 mi
5:46 AM30 °FOvercast.9 mph80%30.02 "Hg9 mi
5:00 AM30 °FOvercast.9 mph80%30.03 "Hg9 mi
4:00 AM30 °FPassing clouds.10 mph80%30.03 "Hg9 mi
3:59 AM30 °FPassing clouds.10 mph80%30.03 "Hg9 mi
3:00 AM32 °FOvercast.7 mph75%30.03 "Hg9 mi
2:00 AM32 °FOvercast.7 mph75%30.05 "Hg9 mi
1:00 AM32 °FOvercast.8 mph75%30.04 "Hg9 mi
12:00 AM32 °FOvercast.7 mph75%30.03 "Hg9 mi
11:00 PM
Fri, Apr 24
34 °FOvercast.6 mph70%30.03 "Hg9 mi
10:00 PM34 °FOvercast.5 mph65%30.03 "Hg9 mi
9:00 PM34 °FOvercast.6 mph60%30.03 "Hg9 mi
8:00 PM36 °FOvercast.8 mph60%30.02 "Hg9 mi
7:00 PM36 °FOvercast.12 mph56%30.01 "Hg9 mi
6:00 PM37 °FOvercast.13 mph52%30.00 "Hg9 mi
5:00 PM37 °FOvercast.12 mph52%30.00 "Hg9 mi
4:00 PM34 °FOvercast.12 mph60%30.01 "Hg9 mi
3:00 PM30 °FOvercast.17 mph69%30.01 "Hg9 mi
2:00 PM28 °FOvercast.13 mph69%30.01 "Hg9 mi
1:00 PM27 °FMostly cloudy.12 mph74%30.02 "Hg9 mi
Weather by CustomWeather, © 2015

See weather overviewHow to use our weather pages